User: anonymous
Location: Caltech
(34.1382°N, 118.1253°W)
Time: 17:07:28
(UTC-07:00)
Language:

SL-08 R/B - Orbit

View from above orbital plane
View from above orbital plane
View from above satellite
View from above satellite

Ground track
Ground track

The orbit data is extracted from the following two-line orbital elements,

1 27561U 02054C   14264.45002145  .00000303  00000-0  79966-4 0  2978
2 27561 098.1207 041.7939 0047070 032.6752 008.1914 14.54968239626879
Epoch (UTC): 21 September 2014 10:48:01
Eccentricity: 0.0047070
inclination: 98.1207°
perigee height: 676 km
apogee height: 743 km
right ascension of ascending node: 41.7939°
argument of perigee: 32.6752°
revolutions per day: 14.54968239
mean anomaly at epoch: 8.1914°
orbit number at epoch: 62687

The dashed part of the orbit path shows where the satellite is in the earth's shadow,  

DLR